Regional Weather Roundup
Issued by NWS

Home | Current Version | Previous Version | Graphics & Text | Print | Product List | Glossary On
Versions: 1 2 3 4 5 6 7 8 9 10 11 12 13 14 15 16 17 18 19 20 21 22 23 24 25 26 27 28 29 30 31 32 33 34 35 36 37 38 39 40 41 42 43 44 45 46 47 48 49 50
000
ASUS43 KLSX 301907
RWRMO

WEATHER SUMMARY FOR MISSOURI
NATIONAL WEATHER SERVICE SPRINGFIELD MO
200 PM CDT THU JUL 30 2015

NOTE: "FAIR" INDICATES FEW OR NO CLOUDS BELOW 12,000 FEET WITH NO
       SIGNIFICANT WEATHER AND/OR OBSTRUCTIONS TO VISIBILITY.
       CURRENT SKY AND/OR WEATHER CONDITIONS ARE NOT AVAILABLE FOR
       CHILLICOTHE AND FARMINGTON.

MOZ001>031-035>038-043-044-053-054-302000-
...NORTHERN AND WESTERN MISSOURI...

CITY           SKY/WX    TMP DP  RH WIND       PRES   REMARKS
KANSAS CTY INT PTSUNNY   83  66  56 SW8       30.21F
KANSAS C DTWN  CLOUDY    88  58  36 SW7       30.19F
LEE`S SUMMIT   CLOUDY    84  60  44 SW6       30.21F
ST JOSEPH      SUNNY     84  64  50 SW7       30.20F
CHILLICOTHE      N/A     86  64  47 VRB6      30.20F
KIRKSVILLE     SUNNY     87  61  41 W10       30.19F

$$
MOZ066>068-077>081-088>096-101>105-302000-
...SOUTHWEST MISSOURI...

CITY           SKY/WX    TMP DP  RH WIND       PRES   REMARKS
SPRINGFIELD      N/A     87  52  29 NE9       30.20F
JOPLIN         PTSUNNY   87  63  44 VRB6      30.19F

$$
MOZ032>034-039>042-045>050-055>058-069>072-302000-
...CENTRAL MISSOURI...

CITY           SKY/WX    TMP DP  RH WIND       PRES   REMARKS
COLUMBIA       MOSUNNY   86  58  38 CALM      30.20F
JEFFERSON CITY MOSUNNY   87  54  32 SE6       30.18S
ROLLA          MOSUNNY   86  57  37 VRB7      30.19F
SEDALIA        PTSUNNY   88  56  33 SE6       30.21F
WHITEMAN AFB   PTSUNNY   88  53  30 E5        30.19F
WARRENSBURG    CLOUDY    84  59  42 CALM      30.20S
OSAGE BEACH    PTSUNNY   88  57  35 CALM      30.20S

$$
MOZ051-052-059>065-302000-
...EAST CENTRAL MISSOURI...

CITY           SKY/WX    TMP DP  RH WIND       PRES   REMARKS
ST LOUIS INTL  PTSUNNY   90  56  31 N8        30.17F
SPIRIT OF STL  MOSUNNY   87  61  41 W7        30.15F
ST CHARLES     MOSUNNY   88  60  38 NW7       30.15F

$$
MOZ072>076-082>087-097>100-106>115-302000-
...SOUTH CENTRAL AND SOUTHEAST MISSOURI...

CITY           SKY/WX    TMP DP  RH WIND       PRES   REMARKS
CAPE GIRARDEAU SUNNY     86  57  37 NE8       30.13
FARMINGTON     SUNNY     84  57  39 NE8       30.23S
POPLAR BLUFF   SUNNY     87  63  44 NE8       30.14F
WEST PLAINS    SUNNY     86  59  39 VRB7      30.22F

$$


USA.gov is the U.S. government's official web portal to all federal, state and local government web resources and services.